Location: Newark
(45.5167°N, 11.1667°E)
Time: 03:25:10
(UTC+00:00)

Explorer 7 - Pass Details

Date: 15 December 2019
Orbit: 485 x 679 km, 50.3° (Epoch: 28 January)

Event Time Altitude Azimuth Distance (km) Brightness Sun altitude
Rises 11:54:13 0° 191° (S) 2,886 12.1 20.5°
Reaches altitude 10° 11:57:11 10° 171° (S) 2,020 11.2 20.4°
Maximum altitude 12:00:08 17° 131° (SE) 1,650 9.8 20.3°
Drops below altitude 10° 12:03:10 10° 92° (E) 2,085 9.7 20.2°
Sets 12:06:17 0° 72° (ENE) 3,022 10.3 20.0°
